Wind_Speed
9 8 7 6 5 5 4 5 6 6 5 5 4 3 1 2 3 5 5 6 7 7 7 8 9 8 8 7 7 6 6 5 5 4 4 5 5 6 6 7 7 7 7 7 7 7 7 7 7
10 10 9 8 7 6 4 5 6 5 6 5 4 3 2 3 3 5 6 7 8 8 9 10 10 10 9 8 8 8 7 7 6 6 5 5 6 6 7 7 7 7 7 6 6 6 6 6 6
12 12 11 10 9 7 5 6 5 4 5 5 5 4 4 5 5 6 7 8 9 10 11 12 12 11 10 10 9 9 9 9 8 8 8 7 7 8 8 8 8 8 8 7 7 6 6 6 6
14 14 13 12 11 9 8 8 7 6 5 5 5 5 5 5 6 8 9 10 10 11 12 13 13 12 11 11 11 11 11 11 11 10 10 10 10 10 10 11 11 10 10 9 9 8 8 7 7
16 16 15 14 14 13 12 12 10 9 8 8 7 7 6 6 7 9 10 11 11 12 13 13 13 13 12 13 13 14 13 13 13 13 13 13 13 13 13 13 13 13 12 12 11 11 11 10 9
19 18 18 17 17 16 16 15 14 13 10 9 8 7 6 7 8 9 10 11 12 13 14 14 14 13 14 14 14 15 15 15 16 16 16 16 17 17 17 16 16 16 15 15 15 15 14 14 13
21 20 20 20 20 19 19 18 16 14 13 10 9 9 8 7 8 10 11 12 13 14 14 15 15 15 15 16 16 17 17 18 18 18 19 19 19 19 19 19 19 19 18 18 18 18 17 17 16
22 22 22 22 23 23 23 21 19 16 14 12 11 10 10 9 9 10 12 13 14 14 16 17 17 18 18 18 19 20 20 20 20 20 21 21 21 21 21 21 21 21 21 20 20 20 20 19 19
23 23 23 24 25 25 25 24 22 19 16 14 13 13 12 11 10 11 13 14 16 17 18 20 21 22 21 21 21 22 22 23 23 23 23 22 22 22 22 22 22 22 21 21 21 21 21 21 20
23 23 24 27 28 27 26 25 23 21 18 16 15 14 14 13 13 13 15 17 19 20 22 24 25 25 25 26 26 26 25 25 25 25 25 24 23 23 23 23 22 22 22 21 21 21 21 21 21
23 23 25 27 28 28 28 27 26 24 22 19 18 18 17 17 17 17 19 21 23 24 25 27 28 29 29 30 30 30 30 29 28 28 27 26 25 25 24 23 23 23 22 21 21 21 21 22 22
23 22 24 26 28 29 29 29 29 28 25 24 22 22 21 21 22 22 23 25 26 26 28 29 30 31 32 33 34 33 33 32 31 30 30 29 28 27 25 24 23 24 23 22 21 21 21 21 22
24 23 24 25 27 30 30 31 32 30 28 28 27 26 26 26 26 26 26 27 28 29 31 32 33 35 35 34 35 36 35 35 33 33 32 31 29 28 27 26 25 24 24 23 23 22 22 21 21
23 22 23 25 28 30 32 32 32 32 31 31 31 30 30 30 29 28 28 29 30 32 33 34 36 39 39 37 37 38 37 36 37 36 34 33 31 30 29 28 27 26 25 24 23 23 22 22 21
22 22 23 25 28 30 32 32 33 33 34 34 33 33 33 32 31 29 30 30 31 32 33 36 38 40 40 40 39 38 37 39 38 37 37 35 33 30 29 28 27 26 24 24 23 23 22 22 20
21 21 23 25 27 28 29 30 31 31 32 33 33 33 32 32 31 31 31 31 31 32 34 37 39 40 41 42 43 41 38 38 36 35 34 33 31 30 28 27 27 25 25 24 23 22 22 21 21
20 21 22 23 25 26 26 26 26 27 28 29 30 30 30 31 31 32 32 32 33 35 36 38 40 41 42 42 40 39 36 34 33 31 29 31 31 29 29 28 26 25 24 24 23 22 22 21 20
19 20 21 22 23 23 23 23 23 23 24 25 27 28 29 30 31 32 34 34 35 36 38 39 40 41 41 38 37 34 30 29 29 27 26 27 29 29 28 26 25 23 23 24 23 22 21 21 21
18 19 20 21 23 23 23 23 22 22 23 24 25 27 29 31 33 34 35 37 38 39 40 42 41 40 37 34 31 29 26 23 24 25 24 24 26 26 25 24 25 24 24 24 24 23 22 22 22
17 17 18 20 21 23 24 24 24 24 24 25 27 29 31 33 34 36 38 40 41 41 41 41 41 39 37 33 30 28 25 21 21 23 24 25 26 25 25 25 25 25 25 25 25 25 24 24 23
14 14 15 17 19 20 22 23 23 25 26 27 29 32 34 36 37 39 40 41 42 42 42 39 39 38 37 34 32 30 28 27 25 24 24 26 26 27 27 27 26 26 26 26 26 26 26 26 25
11 12 13 15 16 17 17 19 20 22 25 26 28 29 31 32 34 35 37 38 39 40 40 39 38 38 38 36 35 33 31 31 30 29 28 27 28 29 29 28 28 28 28 28 29 28 28 28 28
8 8 9 11 12 13 15 15 16 19 21 22 24 26 27 28 29 31 32 34 34 36 36 36 37 38 38 39 39 38 36 35 35 34 33 32 32 32 31 31 31 31 31 32 32 32 32 31 31
6 7 8 8 9 10 12 13 14 16 18 20 22 24 26 27 29 29 30 32 33 35 35 36 38 39 40 42 42 42 42 41 41 40 39 39 38 38 37 37 37 37 37 36 36 36 36 35 34
6 8 9 9 9 10 11 12 14 16 18 21 23 25 27 29 31 32 33 34 36 38 38 39 40 42 43 44 45 46 46 46 46 46 46 45 45 45 45 44 44 43 43 42 41 40 40 39 38
8 10 11 12 12 12 13 14 15 18 21 23 26 28 30 32 34 35 36 37 39 40 41 42 43 45 46 48 49 49 50 50 51 51 51 51 51 51 51 51 50 50 49 48 47 46 45 44 43
9 11 13 14 14 15 15 16 18 20 23 26 29 31 33 34 36 38 39 41 42 44 45 46 47 49 50 51 52 53 54 54 55 55 56 56 57 57 56 56 56 56 55 55 54 52 51 49 48
10 12 14 15 17 18 18 20 22 24 27 29 32 34 36 38 40 41 43 44 46 47 50 51 53 54 55 56 57 57 57 57 58 59 59 60 61 61 61 61 61 61 61 60 59 59 57 56 54
11 13 15 17 18 20 22 24 25 28 31 33 36 38 40 42 44 46 47 49 51 53 54 56 56 57 58 59 59 58 57 57 57 57 57 58 60 62 64 65 66 66 66 65 65 64 63 61 60
12 14 16 18 19 21 24 26 28 31 34 36 39 41 44 46 48 50 52 55 56 57 58 58 58 59 59 59 59 57 56 55 54 53 52 53 53 55 58 60 63 66 69 70 69 68 68 66 64
Wind_Direction
218 223 227 231 244 258 288 336 338 340 355 5 11 29 28 331 307 291 282 285 283 288 297 301 299 300 303 311 319 324 328 331 334 339 344 345 343 342 344 348 351 355 359 4 12 18 24 31 36
230 234 238 240 249 258 282 316 325 327 332 334 344 353 4 351 324 309 302 299 296 298 302 300 298 299 301 304 309 312 313 312 310 309 311 314 316 317 320 324 328 332 336 341 348 357 2 8 13
236 239 242 250 255 262 278 293 297 301 309 313 324 333 339 337 326 321 315 311 310 310 306 302 299 299 300 302 303 303 302 299 296 293 294 298 301 303 305 307 309 311 313 316 321 327 332 338 343
241 243 247 251 256 266 273 274 270 271 281 294 307 318 326 328 327 323 319 317 316 313 308 303 301 302 303 302 301 298 295 291 289 288 288 290 292 293 295 297 298 299 299 299 301 304 307 309 314
245 247 250 254 259 265 269 270 267 260 261 278 287 295 314 322 325 323 319 317 316 313 309 306 306 306 306 304 302 297 293 289 286 284 283 284 285 286 288 289 290 291 292 291 291 293 294 294 295
248 250 252 257 261 265 267 269 268 262 260 269 272 279 298 311 315 315 315 315 312 311 310 310 309 309 308 306 302 297 292 288 285 283 282 282 282 282 283 283 284 285 286 286 286 287 288 288 287
248 251 252 255 259 264 267 269 270 269 266 266 267 275 287 297 304 304 306 308 308 309 311 312 312 311 309 305 302 298 292 287 284 282 281 280 280 280 281 281 281 281 280 281 281 282 283 283 283
251 250 249 251 256 262 268 271 273 272 270 266 267 275 283 294 300 298 299 302 302 304 306 309 310 310 307 303 301 298 292 287 284 281 280 279 279 279 279 280 279 278 277 277 277 278 279 280 280
253 249 247 247 251 259 267 270 274 275 274 273 274 275 279 288 296 298 297 298 298 299 302 304 304 305 304 300 297 294 291 287 284 282 280 279 279 279 278 279 278 277 276 275 274 273 275 276 277
254 250 246 246 250 255 262 269 274 277 278 279 279 278 281 285 290 294 295 299 299 297 297 298 298 298 298 296 293 290 287 284 282 280 279 278 278 277 277 278 278 276 275 273 272 271 272 272 273
256 252 249 248 251 254 258 265 273 278 282 283 283 284 285 288 289 292 294 297 298 297 295 294 296 296 295 292 290 287 284 282 280 278 277 277 277 276 275 276 277 276 274 272 271 269 269 269 270
257 252 249 248 252 255 257 262 269 275 279 280 279 279 281 282 286 291 293 295 295 295 295 294 294 293 293 289 288 286 282 281 278 275 274 274 272 272 272 274 276 276 273 271 270 269 268 268 269
256 253 250 247 247 252 256 259 264 268 272 273 275 277 278 278 282 287 290 292 294 296 296 296 296 293 291 288 286 283 279 275 272 270 269 269 267 267 269 271 273 274 272 271 270 270 269 269 269
257 255 251 248 246 249 252 256 260 262 263 266 269 272 276 279 281 284 286 290 293 294 296 296 295 294 293 288 286 283 278 278 273 268 264 263 263 262 266 269 271 272 270 269 269 269 269 269 269
255 252 249 248 248 250 254 256 258 261 262 263 265 268 272 276 278 281 285 289 290 292 293 294 296 298 296 293 289 283 281 280 277 266 260 259 259 262 265 267 269 271 270 269 267 267 267 267 266
254 252 249 250 251 253 256 259 261 263 263 263 263 266 270 274 277 282 285 287 288 290 293 295 296 297 298 297 294 289 284 278 274 265 255 253 255 259 265 265 268 267 268 267 264 264 264 263 260
253 251 248 250 253 256 260 263 264 264 263 262 263 267 270 273 278 281 284 286 289 291 293 294 295 296 297 297 298 292 287 277 270 261 255 252 253 257 263 264 265 264 263 261 259 259 258 257 256
251 248 247 248 252 257 260 263 264 264 263 264 267 270 274 277 280 283 285 287 290 293 293 294 296 299 300 299 300 294 287 279 269 263 261 258 257 257 262 264 262 261 258 256 256 254 252 252 252
253 251 250 251 253 256 258 262 263 264 264 268 273 276 278 280 281 284 286 287 289 291 292 294 295 297 301 302 304 303 296 287 270 264 265 266 263 261 261 263 261 259 257 256 254 251 249 248 248
257 258 258 258 259 260 262 264 266 268 271 274 277 278 280 282 283 284 285 287 287 288 292 293 291 295 299 304 305 305 301 294 281 273 272 273 268 265 264 264 260 258 256 256 254 250 248 247 247
265 269 268 269 272 273 272 273 273 272 274 277 280 281 283 283 284 285 286 286 287 289 290 289 291 291 294 299 300 300 298 296 292 288 285 279 275 270 266 264 262 257 255 255 253 249 247 247 247
276 279 280 281 283 284 285 283 282 281 282 283 285 286 288 289 288 286 286 287 288 289 289 289 291 290 291 293 294 293 293 291 289 286 283 278 276 274 268 264 261 259 257 255 252 250 249 247 246
287 294 297 297 297 294 292 291 291 289 289 289 292 292 294 297 297 294 292 293 293 293 293 290 290 289 290 290 290 289 287 286 284 282 280 277 274 272 268 265 262 260 259 256 253 251 249 248 248
309 319 325 320 312 309 306 301 298 295 295 296 299 302 302 303 305 304 302 300 298 298 298 294 292 290 290 289 288 286 285 284 282 279 276 272 269 267 265 263 262 260 259 256 253 252 250 248 248
322 327 327 322 317 318 314 306 303 300 299 300 302 304 305 306 307 306 305 303 301 300 299 297 295 293 291 290 288 287 285 283 280 278 274 271 268 265 262 260 258 257 256 255 253 251 251 249 247
315 321 321 321 319 316 314 309 306 304 304 305 306 307 308 309 308 308 307 306 303 301 299 297 295 293 291 289 287 285 283 281 278 276 273 270 267 264 261 259 256 255 254 253 252 250 249 249 248
317 321 323 320 318 317 317 313 308 309 309 311 312 312 313 312 312 311 309 308 305 304 302 300 298 295 293 290 288 286 283 280 278 275 272 269 267 264 261 258 256 254 252 251 250 249 247 247 247
323 322 323 324 321 319 319 318 317 316 317 317 317 316 316 315 315 313 312 310 309 307 306 304 302 300 298 296 293 290 287 283 280 277 274 271 267 264 261 259 257 254 252 250 248 247 246 245 245
325 323 323 323 322 321 322 323 323 321 322 321 320 320 319 319 318 317 316 315 314 312 311 309 306 304 302 300 298 295 292 289 285 281 277 273 269 265 261 258 255 253 251 249 247 246 245 244 243
327 324 323 322 323 323 324 324 325 324 323 323 322 322 322 322 321 321 319 318 317 315 313 311 310 308 306 304 302 300 297 293 290 286 281 277 273 268 264 260 256 253 250 248 247 245 244 243 242
Height
5912 5912 5912 5913 5914 5913 5912 5911 5910 5910 5909 5909 5908 5908 5908 5908 5909 5911 5909 5907 5907 5906 5906 5905 5905 5904 5903 5902 5900 5899 5899 5898 5898 5897 5897 5897 5896 5896 5896 5896 5895 5895 5895 5895 5894 5894 5894 5894 5893
5912 5912 5913 5914 5913 5913 5913 5912 5911 5910 5910 5909 5909 5909 5908 5908 5908 5908 5907 5907 5906 5906 5905 5905 5904 5903 5902 5901 5900 5899 5898 5897 5897 5896 5896 5896 5896 5895 5895 5895 5895 5895 5894 5894 5894 5894 5894 5893 5893
5911 5912 5913 5913 5912 5913 5913 5912 5911 5910 5909 5909 5909 5909 5909 5908 5908 5907 5907 5907 5906 5905 5905 5904 5903 5902 5901 5900 5899 5898 5897 5897 5896 5895 5895 5895 5895 5895 5894 5894 5894 5894 5893 5893 5893 5893 5893 5893 5893
5910 5911 5912 5912 5911 5911 5911 5911 5911 5910 5910 5909 5909 5908 5908 5908 5907 5907 5907 5906 5905 5905 5904 5904 5902 5901 5900 5899 5898 5897 5896 5896 5895 5895 5894 5894 5894 5893 5893 5893 5892 5892 5892 5892 5892 5892 5892 5892 5892
5909 5910 5910 5910 5909 5909 5910 5909 5909 5909 5909 5908 5908 5908 5907 5907 5906 5906 5906 5905 5905 5904 5904 5903 5901 5900 5899 5898 5897 5896 5895 5894 5894 5893 5893 5892 5892 5891 5891 5890 5890 5890 5890 5890 5890 5890 5890 5890 5890
5907 5908 5908 5908 5907 5907 5907 5907 5907 5907 5907 5907 5907 5907 5907 5906 5906 5906 5905 5905 5904 5904 5903 5901 5900 5898 5897 5896 5895 5894 5893 5893 5892 5891 5890 5890 5889 5889 5888 5888 5887 5887 5887 5887 5887 5887 5888 5888 5888
5905 5905 5905 5905 5905 5904 5904 5904 5905 5905 5905 5906 5906 5906 5906 5905 5905 5905 5905 5904 5903 5902 5901 5900 5898 5897 5896 5894 5893 5892 5891 5890 5889 5888 5888 5887 5886 5886 5885 5885 5885 5884 5884 5884 5884 5884 5884 5884 5884
5901 5903 5902 5902 5902 5901 5901 5902 5902 5903 5904 5904 5904 5904 5904 5904 5904 5904 5903 5902 5901 5900 5899 5898 5897 5895 5894 5892 5891 5890 5889 5887 5886 5885 5884 5884 5883 5883 5882 5882 5881 5881 5881 5880 5880 5880 5880 5880 5881
5898 5900 5899 5899 5898 5899 5898 5899 5899 5901 5902 5902 5902 5902 5902 5902 5902 5901 5901 5900 5899 5898 5897 5895 5894 5892 5891 5890 5888 5887 5885 5884 5883 5882 5881 5880 5879 5879 5878 5877 5877 5877 5877 5876 5876 5876 5876 5876 5876
5894 5895 5896 5895 5895 5896 5895 5896 5896 5898 5899 5899 5900 5899 5899 5899 5899 5898 5898 5897 5896 5895 5894 5892 5890 5889 5887 5886 5884 5882 5881 5879 5878 5877 5876 5875 5875 5874 5873 5873 5872 5872 5872 5872 5872 5872 5871 5871 5872
5890 5891 5892 5891 5892 5892 5893 5893 5893 5894 5896 5896 5896 5896 5896 5895 5895 5895 5895 5894 5892 5891 5889 5888 5886 5884 5883 5881 5879 5877 5876 5874 5872 5871 5870 5870 5869 5869 5868 5867 5867 5867 5867 5867 5867 5867 5867 5867 5867
5886 5887 5887 5888 5888 5889 5890 5890 5890 5890 5892 5892 5892 5892 5892 5892 5891 5891 5890 5889 5887 5886 5884 5882 5880 5878 5876 5874 5873 5871 5869 5867 5865 5864 5864 5863 5863 5862 5862 5862 5861 5861 5861 5861 5861 5862 5862 5862 5862
5881 5883 5883 5884 5884 5885 5885 5886 5886 5887 5887 5887 5887 5887 5887 5887 5887 5887 5886 5885 5883 5881 5879 5876 5874 5871 5869 5866 5864 5862 5860 5858 5856 5856 5856 5855 5855 5856 5856 5855 5855 5855 5855 5856 5856 5856 5857 5857 5857
5877 5878 5879 5879 5879 5879 5880 5881 5881 5882 5881 5881 5882 5882 5882 5882 5882 5882 5881 5880 5878 5875 5873 5870 5867 5864 5861 5858 5855 5853 5851 5849 5848 5847 5846 5847 5847 5848 5848 5849 5849 5849 5849 5849 5850 5851 5851 5851 5852
5872 5873 5874 5874 5874 5874 5875 5876 5875 5876 5876 5877 5877 5877 5877 5877 5877 5876 5875 5874 5872 5869 5866 5863 5859 5856 5852 5850 5846 5843 5841 5839 5839 5838 5837 5838 5839 5840 5841 5841 5842 5843 5843 5843 5844 5845 5845 5846 5846
5868 5869 5869 5869 5870 5870 5872 5871 5871 5871 5872 5872 5872 5872 5872 5871 5870 5870 5868 5867 5865 5862 5859 5856 5852 5848 5844 5841 5837 5833 5830 5829 5829 5828 5827 5828 5829 5831 5833 5834 5835 5836 5837 5837 5838 5839 5840 5840 5841
5864 5865 5865 5865 5865 5866 5867 5867 5867 5867 5867 5867 5867 5867 5866 5866 5865 5863 5862 5860 5857 5855 5852 5849 5844 5840 5836 5831 5826 5822 5820 5818 5818 5818 5818 5820 5822 5823 5825 5826 5827 5828 5830 5831 5832 5833 5834 5834 5835
5861 5861 5861 5862 5862 5862 5863 5863 5863 5863 5863 5863 5863 5862 5862 5860 5859 5857 5855 5852 5850 5848 5844 5840 5835 5832 5828 5823 5818 5813 5812 5810 5809 5811 5811 5812 5814 5816 5818 5819 5820 5821 5823 5824 5825 5827 5828 5829 5830
5858 5858 5858 5859 5859 5859 5859 5859 5859 5859 5859 5859 5858 5857 5857 5855 5853 5850 5848 5846 5843 5840 5837 5833 5829 5826 5821 5817 5813 5809 5807 5805 5805 5807 5807 5808 5809 5810 5811 5812 5814 5815 5816 5817 5818 5820 5821 5823 5824
5855 5855 5855 5855 5855 5855 5855 5856 5856 5855 5855 5855 5854 5852 5851 5849 5846 5844 5841 5838 5835 5832 5829 5825 5821 5818 5816 5812 5809 5807 5805 5804 5803 5802 5802 5803 5803 5804 5805 5807 5807 5808 5809 5810 5811 5813 5814 5816 5818
5853 5853 5853 5853 5852 5852 5852 5852 5852 5851 5851 5850 5849 5847 5845 5842 5839 5836 5833 5830 5827 5824 5820 5816 5813 5811 5809 5807 5805 5804 5802 5801 5799 5798 5798 5798 5798 5798 5798 5799 5800 5801 5802 5803 5804 5806 5807 5809 5811
5851 5851 5851 5850 5850 5849 5849 5848 5848 5847 5846 5845 5843 5841 5838 5834 5831 5828 5825 5822 5819 5816 5813 5810 5806 5803 5801 5800 5799 5798 5796 5795 5794 5793 5792 5792 5791 5791 5791 5792 5793 5794 5794 5795 5797 5798 5800 5802 5804
5850 5849 5849 5848 5848 5847 5846 5846 5845 5843 5841 5840 5837 5834 5831 5828 5824 5821 5818 5814 5811 5808 5804 5801 5798 5795 5793 5791 5789 5788 5787 5786 5785 5785 5784 5784 5783 5783 5783 5783 5784 5785 5786 5787 5789 5790 5792 5794 5796
5849 5849 5848 5847 5846 5845 5844 5843 5842 5839 5837 5835 5832 5829 5826 5822 5818 5815 5811 5807 5803 5799 5796 5792 5789 5786 5784 5781 5779 5777 5776 5774 5774 5773 5773 5773 5773 5773 5773 5773 5774 5775 5776 5777 5779 5781 5783 5785 5787
5848 5848 5847 5846 5844 5844 5842 5840 5839 5836 5833 5830 5827 5824 5820 5816 5812 5808 5804 5800 5795 5791 5787 5783 5780 5776 5773 5770 5767 5764 5762 5761 5760 5759 5758 5759 5759 5759 5760 5761 5762 5763 5764 5766 5767 5770 5772 5774 5777
5847 5846 5845 5844 5842 5841 5839 5837 5836 5832 5829 5825 5822 5818 5814 5810 5805 5801 5796 5791 5786 5782 5777 5773 5769 5764 5760 5756 5753 5750 5747 5745 5743 5742 5742 5741 5742 5742 5743 5745 5746 5748 5750 5752 5754 5757 5759 5762 5765
5845 5843 5842 5841 5839 5837 5835 5833 5831 5828 5824 5820 5816 5812 5807 5803 5798 5793 5787 5782 5776 5770 5765 5760 5755 5750 5745 5741 5737 5733 5730 5727 5725 5724 5723 5722 5722 5723 5724 5725 5728 5730 5732 5735 5739 5742 5745 5748 5752
5843 5841 5840 5838 5835 5833 5832 5829 5826 5822 5818 5814 5809 5804 5799 5794 5788 5783 5777 5770 5764 5758 5751 5745 5739 5733 5728 5723 5718 5714 5710 5707 5704 5703 5701 5700 5700 5700 5702 5704 5706 5709 5713 5716 5720 5724 5728 5732 5736
5841 5839 5837 5835 5832 5830 5827 5826 5821 5816 5811 5807 5801 5796 5790 5784 5777 5770 5763 5756 5749 5742 5735 5728 5721 5715 5709 5702 5697 5692 5688 5684 5681 5679 5678 5677 5676 5677 5678 5680 5683 5686 5690 5694 5699 5704 5708 5714 5719
5838 5836 5834 5832 5829 5826 5823 5822 5815 5810 5805 5799 5793 5787 5780 5773 5765 5757 5749 5742 5734 5726 5719 5711 5703 5696 5689 5683 5677 5671 5667 5663 5659 5657 5655 5653 5653 5653 5654 5656 5658 5662 5666 5671 5676 5681 5687 5693 5699